Location: ?????oe
(44.4874°N, 135.7046°E)
Time: 15:32:12
(UTC+00:00)

ARIANE 5 R/B - Pass Details

Date: 13 December 2025
Orbit: 747 x 792 km, 98.8° (Epoch: 19 January)

Event Time Altitude Azimuth Distance (km) Brightness Sun altitude
Rises 21:29:50 0° 15° (NNE) 3,298 5.7 -9.6°
Reaches altitude 10° 21:32:10 10° 18° (NNE) 2,366 5.0 -9.3°
Maximum altitude 21:37:24 75° 103° (ESE) 825 2.9 -8.4°
Drops below altitude 10° 21:42:36 10° 189° (S) 2,347 5.2 -7.6°
Sets 21:44:55 0° 191° (S) 3,269 6.0 -7.2°
